EW7837 Weather Reports


time (UTC)temp
C
wind
direction
speed
KPH
gust
KPH
rain 1hr
cm
rain 24hr
cm
rain mn
cm
humidity
%
barometer
mb
20260510151538 18 241 0.0 0.0 0.00 0.00 0.00 82 1010.1
20260510150031 17 241 0.0 0.0 0.00 0.00 0.00 83 1010.1
20260510144538 17 241 0.0 0.0 0.00 0.00 0.00 83 1010.0
20260510143027 17 241 0.0 0.0 0.00 0.00 0.00 84 1009.7
20260510141520 17 241 0.0 0.0 0.00 0.00 0.00 85 1009.6
20260510140014 16 241 0.0 0.0 0.00 0.00 0.00 85 1009.6
20260510134512 16 241 0.0 0.0 0.00 0.00 0.00 85 1009.5
20260510133008 16 241 0.0 0.0 0.00 0.00 0.00 85 1009.4
20260510131506 16 241 0.0 0.0 0.00 0.00 0.00 85 1009.3
20260510130014 16 241 0.0 0.0 0.00 0.00 0.00 85 1009.3
20260510124556 16 241 0.0 0.0 0.00 0.00 0.00 85 1009.3
20260510123051 16 241 0.0 0.0 0.00 0.00 0.00 86 1009.3
20260510121549 16 241 0.0 0.0 0.00 0.00 0.00 86 1009.2
20260510120035 16 241 0.0 0.0 0.00 0.00 0.00 86 1009.2
20260510114558 16 241 0.0 0.0 0.00 0.00 0.00 86 1009.1
20260510113057 16 241 0.0 0.0 0.00 0.00 0.00 86 1009.2
20260510111606 16 241 0.0 0.0 0.00 0.00 0.00 86 1009.3
20260510110057 16 241 0.0 0.0 0.00 0.00 0.00 86 1009.4
20260510104527 16 241 0.0 0.0 0.00 0.00 0.00 86 1009.4
20260510103026 16 241 0.0 0.0 0.00 0.00 0.00 86 1009.5
20260510101558 16 241 0.0 0.0 0.00 0.00 0.00 86 1009.5
20260510094558 16 241 0.0 0.0 0.00 0.00 0.00 86 1009.6
20260510093100 16 241 0.0 0.0 0.00 0.00 0.00 86 1009.6
20260510091551 16 241 0.0 0.0 0.00 0.00 0.00 85 1009.6
20260510090051 16 241 0.0 0.0 0.00 0.00 0.00 85 1009.7
20260510084547 16 241 0.0 0.0 0.00 0.00 0.00 85 1009.9
20260510083048 16 241 0.0 0.0 0.00 0.00 0.00 85 1010.0
20260510081557 16 241 0.0 0.0 0.00 0.00 0.00 85 1010.1
20260510080046 17 241 0.0 0.0 0.00 0.00 0.00 85 1010.1
20260510074517 17 241 0.0 0.0 0.00 0.00 0.00 85 1010.1
20260510073015 17 241 0.0 0.0 0.00 0.00 0.00 84 1010.2
20260510071545 17 241 0.0 0.0 0.00 0.00 0.00 84 1010.1
20260510070047 17 241 0.0 0.0 0.00 0.00 0.00 84 1010.3
20260510064515 17 241 0.0 0.0 0.00 0.00 0.00 84 1010.5
20260510063015 17 241 0.0 0.0 0.00 0.00 0.00 84 1010.5
20260510061524 17 241 0.0 0.0 0.00 0.00 0.00 84 1010.5
20260510060027 17 241 0.0 0.0 0.00 0.00 0.00 84 1010.5
20260510054510 17 241 0.0 0.0 0.00 0.00 0.00 84 1010.4
20260510053010 17 241 0.0 0.0 0.00 0.00 0.00 84 1010.5
20260510051508 17 241 0.0 0.0 0.00 0.00 0.00 84 1010.5
20260510050007 17 241 0.0 0.0 0.00 0.00 0.00 84 1010.4
20260510044506 17 241 0.0 0.0 0.00 0.00 0.00 84 1010.5
20260510043006 16 241 0.0 0.0 0.00 0.00 0.00 85 1010.2
20260510041500 16 241 0.0 0.0 0.00 0.00 0.00 84 1010.1
20260510040100 16 241 0.0 0.0 0.00 0.00 0.00 84 1010.0
20260510034558 16 241 0.0 0.0 0.00 0.00 0.00 84 1009.6
20260510033057 16 241 0.0 0.0 0.00 0.00 0.00 83 1009.6
20260510031622 17 241 0.0 0.0 0.00 0.00 0.00 82 1009.4
20260510030053 17 241 0.0 0.0 0.00 0.00 0.00 82 1009.3
20260510024549 17 241 0.0 0.0 0.00 0.00 0.00 81 1009.1
20260510023054 17 241 0.0 0.0 0.00 0.00 0.00 80 1009.1
20260510021546 18 241 0.0 0.0 0.00 0.00 0.00 79 1009.0
20260510020048 18 241 0.0 0.0 0.00 0.00 0.00 78 1009.1
20260510014543 18 241 0.0 0.0 0.00 0.00 0.00 77 1009.0
20260510013043 19 241 0.0 0.0 0.00 0.00 0.00 75 1009.1
20260510011520 20 240 0.0 0.0 0.00 0.00 0.00 74 1008.9
20260510010016 20 250 0.0 0.0 0.00 0.00 0.00 72 1009.0
20260510004509 21 250 0.0 0.0 0.00 0.00 0.00 71 1008.9
20260510003010 21 202 0.0 0.0 0.00 0.00 0.00 70 1008.9
20260510001509 21 261 0.0 0.0 0.00 0.00 0.00 69 1008.9
20260510000008 22 262 0.0 0.0 0.00 0.00 0.00 69 1008.8
20260509234612 22 242 0.0 0.0 0.00 0.00 0.00 69 1008.9
20260509233037 22 243 0.0 0.0 0.00 0.00 0.00 69 1008.9
20260509231537 21 243 0.0 0.0 0.00 0.00 0.00 69 1008.6
20260509230006 21 250 0.0 0.0 0.00 0.00 0.00 70 1009.1
20260509224504 21 262 0.0 0.0 0.00 0.00 0.00 70 1009.4
20260509223036 21 253 0.0 0.0 0.00 0.00 0.00 70 1009.5
20260509221537 21 223 0.0 0.0 0.00 0.00 0.00 70 1009.6
20260509220030 21 252 0.0 0.0 0.00 0.00 0.00 71 1009.7
20260509214530 21 262 0.0 0.0 0.00 0.00 0.00 70 1009.7
20260509213030 22 250 1.6 0.0 0.00 0.00 0.00 70 1009.6
20260509211553 21 271 1.6 0.0 0.00 0.00 0.00 71 1010.0
20260509210025 22 263 0.0 0.0 0.00 0.00 0.00 69 1010.1
20260509204524 21 265 1.6 0.0 0.00 0.00 0.00 69 1010.1
20260509203037 21 244 0.0 0.0 0.00 0.00 0.00 71 1010.1
20260509201524 21 248 0.0 0.0 0.00 0.00 0.00 71 1010.1
20260509200053 22 259 0.0 0.0 0.00 0.00 0.00 70 1010.1
20260509194554 21 274 0.0 0.0 0.00 0.00 0.00 71 1010.1
20260509193023 21 267 0.0 0.0 0.00 0.00 0.00 72 1010.2
20260509191521 21 236 1.6 0.0 0.00 0.00 0.00 72 1010.3
20260509190052 21 254 1.6 0.0 0.00 0.00 0.00 72 1010.2
20260509184548 22 264 0.0 0.0 0.00 0.00 0.00 72 1010.2
20260509183043 22 269 0.0 0.0 0.00 0.00 0.00 71 1010.4
20260509181539 21 232 0.0 0.0 0.00 0.00 0.00 73 1010.4
20260509180037 21 241 0.0 0.0 0.00 0.00 0.00 73 1010.5
20260509174535 21 219 0.0 0.0 0.00 0.00 0.00 73 1010.5
20260509173028 21 245 0.0 0.0 0.00 0.00 0.00 74 1010.1
20260509171527 21 245 0.0 0.0 0.00 0.00 0.00 74 1010.6
20260509170025 21 245 0.0 0.0 0.00 0.00 0.00 74 1010.6
20260509164522 21 245 0.0 0.0 0.00 0.00 0.00 76 1010.6
20260509163020 20 245 0.0 0.0 0.00 0.00 0.00 79 1010.6
20260509161516 18 245 0.0 0.0 0.00 0.00 0.00 81 1010.6
20260509160010 18 245 0.0 0.0 0.00 0.00 0.00 83 1010.6
20260509154506 18 245 0.0 0.0 0.00 0.00 0.00 83 1010.6
20260509153101 18 245 0.0 0.0 0.00 0.00 0.00 84 1010.6